| time (UTC) | temp F | wind direction | speed knots | gust knots | rain 1hr in | rain 24hr in | rain mn in | humidity % | barometer mb |
| 20260504043017 | 50 | 0.0 | 0.0 | 0.00 | 0.00 | 0.00 | 56 | 1015.6 | |
| 20260504040017 | 50 | 0.0 | 0.0 | 0.00 | 0.00 | 0.00 | 53 | 1015.6 | |
| 20260504033017 | 50 | 0.0 | 0.0 | 0.00 | 0.00 | 0.00 | 52 | 1015.4 | |
| 20260504030017 | 50 | 0.0 | 0.0 | 0.00 | 0.00 | 0.00 | 55 | 1015.1 | |
| 20260504023037 | 51 | 0.0 | 0.0 | 0.00 | 0.00 | 0.00 | 52 | 1015.0 | |
| 20260504020016 | 51 | 0.0 | 0.0 | 0.00 | 0.00 | 0.00 | 53 | 1015.0 | |
| 20260504013016 | 52 | 0.0 | 0.0 | 0.00 | 0.00 | 0.00 | 49 | 1014.8 | |
| 20260504010016 | 54 | 0.0 | 0.0 | 0.00 | 0.00 | 0.00 | 47 | 1014.6 | |
| 20260504003017 | 55 | 0.0 | 0.0 | 0.00 | 0.00 | 0.00 | 43 | 1014.5 | |
| 20260504000057 | 57 | 0.0 | 0.0 | 0.00 | 0.00 | 0.00 | 39 | 1014.1 | |
| 20260503233017 | 59 | 0.0 | 0.0 | 0.00 | 0.00 | 0.00 | 35 | 1014.0 | |
| 20260503230017 | 60 | 0.0 | 0.0 | 0.00 | 0.00 | 0.00 | 34 | 1013.8 | |
| 20260503223037 | 61 | 0.0 | 1.7 | 0.00 | 0.00 | 0.00 | 31 | 1013.9 | |
| 20260503220017 | 63 | 0.0 | 2.6 | 0.00 | 0.00 | 0.00 | 30 | 1014.0 | |
| 20260503213016 | 63 | 0.0 | 4.3 | 0.00 | 0.00 | 0.00 | 31 | 1014.1 | |
| 20260503210016 | 64 | 113 | 0.9 | 3.5 | 0.00 | 0.00 | 0.00 | 32 | 1014.1 |
| 20260503203017 | 63 | 0.0 | 2.6 | 0.00 | 0.00 | 0.00 | 33 | 1014.1 | |
| 20260503200037 | 62 | 68 | 0.9 | 4.3 | 0.00 | 0.00 | 0.00 | 33 | 1014.7 |
| 20260503193016 | 62 | 45 | 0.9 | 5.2 | 0.00 | 0.00 | 0.00 | 34 | 1014.9 |
| 20260503190016 | 60 | 90 | 0.9 | 4.3 | 0.00 | 0.00 | 0.00 | 36 | 1015.4 |
| 20260503183016 | 59 | 68 | 0.9 | 4.3 | 0.00 | 0.00 | 0.00 | 39 | 1015.8 |
| 20260503180016 | 58 | 45 | 0.9 | 2.6 | 0.00 | 0.00 | 0.00 | 37 | 1015.8 |
| 20260503173015 | 57 | 293 | 0.9 | 7.8 | 0.00 | 0.00 | 0.00 | 38 | 1016.2 |